Total_Precipitation_Accumulation
0.00 0.00 0.00 0.00 0.00 0.00 0.00 0.00 0.00 0.00 0.00 0.00 0.00 0.00 0.00 0.00 0.00 -0.00 -0.00 -0.00 -0.00 -0.00 -0.00 -0.00 -0.00 -0.00 -0.00 -0.01 -0.01 -0.01 -0.01 -0.01 -0.00 -0.00 -0.00 -0.01 -0.01 -0.02 -0.03 -0.04 -0.04 -0.07 -0.33 -0.29 -0.34 -0.34 -0.24 -0.09 -0.09 -0.09 -0.11 -0.11 -0.10 -0.10 -0.09 -0.14 -0.14 -0.08 0.02 0.06 0.06 0.09 0.13 0.12 0.13 0.13 0.18 0.32 0.55 0.55 0.62 0.60 0.61 0.61 0.36 0.46 0.46 0.15 0.01 0.13 0.13 0.06 0.07 0.20 0.14 0.14 -0.25 -0.25 0.17 0.17 0.09 0.02 0.15 0.15 0.01 0.00 0.00 0.00 0.00 -0.00 -0.00 -0.00 0.00
0.00 0.00 0.00 0.00 0.00 0.00 0.00 0.00 0.00 0.00 0.00 0.00 0.00 0.00 0.00 0.00 0.00 -0.00 -0.00 -0.00 -0.00 -0.00 -0.00 -0.00 -0.00 -0.00 -0.00 -0.00 -0.01 -0.01 -0.01 -0.01 -0.01 -0.01 -0.00 -0.01 -0.01 -0.02 -0.03 -0.04 -0.04 -0.26 -0.31 -0.32 -0.36 -0.36 -0.30 -0.11 -0.09 -0.09 -0.10 -0.11 -0.11 -0.11 -0.10 -0.09 -0.09 -0.10 -0.01 0.09 0.09 0.14 0.19 0.16 0.10 0.10 0.17 0.17 0.29 0.29 0.36 0.28 0.57 0.57 0.55 0.41 0.41 0.36 0.33 0.43 0.43 0.07 0.11 0.13 0.13 0.13 -0.32 -0.20 0.26 0.26 0.35 0.25 0.01 0.01 0.00 0.00 0.00 0.00 0.00 0.00 0.00 -0.01 -0.00
0.00 0.00 0.00 0.00 0.00 0.00 -0.00 0.00 0.00 0.00 0.00 0.00 0.00 0.00 0.00 0.00 0.00 -0.00 -0.00 -0.00 -0.00 -0.00 -0.00 -0.00 0.00 0.00 -0.00 -0.00 -0.01 -0.01 -0.01 -0.01 -0.01 -0.01 -0.01 -0.01 -0.01 -0.01 -0.02 -0.13 -0.13 -0.20 -0.28 -0.32 -0.39 -0.39 -0.39 -0.28 -0.11 -0.11 -0.12 -0.11 -0.11 -0.11 -0.10 -0.10 -0.10 -0.07 -0.06 0.18 0.18 0.20 0.21 0.24 0.24 0.24 0.19 0.17 0.17 0.17 0.19 0.14 0.24 0.24 0.30 0.25 0.25 0.30 0.30 0.31 0.31 0.43 0.45 0.33 0.07 0.07 -0.01 -0.09 0.06 0.06 0.20 0.48 0.40 0.40 0.03 0.09 0.09 0.01 0.00 0.00 0.00 -0.01 -0.00
0.00 0.00 0.00 0.00 0.00 0.00 0.00 0.00 -0.00 -0.00 0.00 0.00 0.00 0.00 0.00 0.00 0.00 0.00 -0.00 -0.01 -0.01 -0.00 -0.00 -0.00 0.00 0.00 -0.00 -0.00 -0.01 -0.01 -0.00 -0.01 -0.01 -0.01 -0.01 -0.01 -0.01 -0.01 -0.01 -0.07 -0.07 -0.19 -0.22 -0.26 -0.39 -0.39 -0.47 -0.35 -0.13 -0.13 -0.12 -0.11 -0.10 -0.10 -0.11 -0.12 -0.12 -0.07 -0.05 -0.04 -0.04 0.06 0.18 0.27 0.30 0.30 0.21 0.19 0.16 0.16 0.10 0.11 0.19 0.19 0.20 0.21 0.21 0.22 0.20 0.20 0.20 0.23 0.36 0.25 0.16 0.16 0.04 -0.11 -0.24 -0.24 0.06 0.29 0.48 0.48 0.48 0.17 0.17 0.10 0.00 0.00 0.00 -0.00 -0.00
0.00 -0.00 0.00 0.00 -0.00 -0.00 -0.00 -0.00 -0.00 -0.00 0.00 0.00 0.00 0.00 0.00 0.00 0.00 0.00 0.00 -0.00 -0.00 -0.01 -0.00 -0.00 -0.00 -0.00 -0.00 -0.01 -0.00 -0.00 -0.00 -0.01 -0.01 -0.01 -0.01 -0.01 -0.01 -0.02 -0.02 -0.05 -0.05 -0.16 -0.20 -0.25 -0.36 -0.36 -0.55 -0.41 -0.14 -0.14 -0.12 -0.12 -0.10 -0.10 -0.09 -0.08 -0.08 -0.08 -0.05 -0.04 -0.04 -0.01 0.02 0.10 0.29 0.29 0.24 0.19 0.19 0.19 0.11 0.20 0.23 0.23 0.22 0.23 0.23 0.17 0.10 0.11 0.11 0.11 0.15 0.10 0.18 0.18 0.09 -0.13 -0.07 -0.07 -0.13 -0.06 0.26 0.26 0.45 0.26 0.26 0.03 0.04 0.01 0.01 0.01 -0.02
0.00 0.00 0.00 0.00 -0.00 -0.00 -0.00 -0.00 -0.00 -0.00 0.00 0.00 0.00 0.00 0.00 0.00 0.00 0.00 -0.00 -0.00 -0.00 -0.01 -0.00 -0.02 -0.00 -0.00 -0.01 -0.01 -0.00 -0.00 -0.00 -0.00 -0.01 -0.01 -0.01 -0.02 -0.02 -0.02 -0.02 -0.06 -0.06 -0.15 -0.19 -0.24 -0.32 -0.32 -0.43 -0.41 -0.24 -0.24 -0.11 -0.11 -0.11 -0.11 -0.09 -0.07 -0.07 -0.06 -0.05 -0.04 -0.04 -0.04 -0.02 0.02 0.19 0.19 0.17 0.21 0.20 0.20 0.22 0.30 0.32 0.32 0.26 0.25 0.25 0.20 0.09 0.09 0.09 0.05 0.06 0.06 0.09 0.09 0.18 -0.11 -0.03 -0.03 -0.09 -0.09 0.16 0.16 0.44 0.21 0.21 0.27 0.19 0.03 0.03 0.01 -0.00
0.00 -0.00 0.00 0.00 -0.00 -0.00 0.00 -0.00 0.00 0.00 0.00 -0.00 0.00 0.00 -0.00 0.00 0.00 -0.00 -0.00 -0.00 -0.00 -0.00 -0.01 -0.03 -0.00 -0.00 -0.00 -0.00 -0.00 -0.00 -0.00 -0.00 -0.01 -0.01 -0.01 -0.02 -0.02 -0.02 -0.01 -0.03 -0.03 -0.08 -0.19 -0.15 -0.30 -0.30 -0.31 -0.34 -0.19 -0.19 -0.10 -0.10 -0.10 -0.10 -0.10 -0.08 -0.08 -0.05 -0.05 -0.04 -0.04 -0.05 -0.05 -0.02 0.01 0.01 0.08 0.15 0.19 0.19 0.24 0.29 0.37 0.37 0.37 0.27 0.27 0.21 0.07 0.06 0.06 0.08 0.04 0.04 0.07 0.07 0.15 0.14 0.03 0.03 0.09 -0.05 -0.01 -0.01 0.24 0.12 0.12 0.16 0.06 0.06 0.06 0.17 0.12
0.00 0.00 0.00 -0.00 -0.00 -0.00 -0.00 0.00 0.00 0.00 0.00 -0.00 0.00 0.00 0.00 -0.00 -0.00 -0.00 -0.00 -0.00 -0.00 -0.00 -0.01 -0.05 -0.00 -0.00 -0.00 -0.01 -0.00 -0.00 -0.00 -0.01 -0.02 -0.02 -0.02 -0.03 -0.03 -0.02 -0.01 -0.01 -0.01 -0.03 -0.14 -0.03 -0.11 -0.11 -0.15 -0.20 -0.15 -0.15 -0.10 -0.09 -0.09 -0.09 -0.10 -0.07 -0.07 -0.05 -0.04 -0.04 -0.04 -0.05 -0.05 -0.04 -0.01 -0.01 0.03 0.08 0.12 0.12 0.19 0.26 0.32 0.32 0.37 0.28 0.28 0.19 0.11 0.02 0.02 0.03 0.04 0.02 0.02 0.02 0.13 0.13 0.02 0.02 0.15 0.16 0.00 0.00 0.03 0.08 0.08 0.01 0.02 0.04 0.04 0.11 0.12
0.00 0.00 -0.00 -0.00 0.00 0.00 -0.00 0.00 0.00 0.00 0.00 0.00 -0.00 -0.00 -0.00 -0.00 -0.00 -0.00 -0.00 -0.00 -0.00 -0.00 -0.02 -0.06 -0.00 -0.00 -0.01 -0.01 -0.01 -0.01 -0.01 -0.01 -0.02 -0.02 -0.03 -0.03 -0.03 -0.02 -0.01 -0.00 -0.00 -0.02 -0.02 -0.03 -0.03 -0.03 -0.06 -0.11 -0.12 -0.12 -0.12 -0.09 -0.08 -0.08 -0.08 -0.11 -0.11 -0.09 -0.06 -0.05 -0.05 -0.05 -0.05 -0.05 -0.03 -0.03 -0.03 0.02 0.06 0.06 0.10 0.18 0.22 0.22 0.27 0.14 0.14 0.15 0.09 0.03 0.03 -0.01 0.02 0.01 0.01 0.01 0.02 0.08 0.06 0.06 0.17 0.16 0.14 0.14 0.07 0.17 0.17 0.12 0.00 0.00 0.00 0.01 0.01
0.00 0.00 0.00 -0.00 -0.00 -0.00 0.00 0.00 0.00 0.00 0.00 0.00 0.00 0.00 -0.00 -0.00 -0.00 -0.00 -0.00 -0.00 -0.00 -0.00 -0.02 -0.06 -0.01 -0.01 -0.01 -0.01 -0.01 -0.01 -0.01 -0.03 -0.03 -0.03 -0.03 -0.02 -0.02 -0.01 -0.01 -0.00 -0.00 -0.00 -0.00 -0.01 -0.02 -0.02 -0.16 -0.10 -0.12 -0.12 -0.14 -0.16 -0.15 -0.15 -0.14 -0.11 -0.11 -0.11 -0.08 -0.07 -0.07 -0.06 -0.05 -0.05 -0.05 -0.05 -0.05 -0.03 0.01 0.01 0.01 0.10 0.14 0.14 0.13 0.07 0.07 0.01 0.10 0.04 0.04 -0.00 0.01 0.00 0.05 0.05 0.02 0.01 0.06 0.06 0.13 0.15 0.13 0.13 0.15 0.15 0.15 0.16 0.00 0.01 0.01 0.01 -0.05
0.00 0.00 0.00 -0.00 -0.00 -0.00 -0.00 0.00 -0.00 -0.00 -0.00 0.00 0.00 0.00 -0.00 0.00 0.00 -0.01 -0.01 -0.00 -0.00 -0.00 -0.01 -0.05 -0.02 -0.02 -0.00 -0.00 -0.00 -0.00 -0.01 -0.03 -0.03 -0.03 -0.01 -0.01 -0.01 -0.00 -0.00 -0.00 -0.00 -0.00 -0.01 -0.16 -0.23 -0.23 -0.26 -0.18 -0.07 -0.07 -0.12 -0.11 -0.12 -0.12 -0.08 -0.08 -0.08 -0.08 -0.09 -0.07 -0.07 -0.06 -0.05 -0.05 -0.05 -0.05 -0.06 -0.05 -0.00 -0.00 -0.00 0.00 0.09 0.09 0.09 0.06 0.06 0.01 -0.01 0.02 0.02 -0.00 -0.03 0.01 0.04 0.04 0.05 0.06 0.03 0.03 0.07 0.08 0.12 0.12 0.14 0.11 0.11 0.14 0.11 0.17 0.17 0.09 0.02
0.00 0.00 0.00 0.00 -0.00 -0.00 -0.00 0.00 -0.00 -0.00 -0.00 0.00 -0.00 -0.00 -0.00 -0.00 -0.00 -0.01 -0.01 -0.01 -0.01 -0.01 -0.01 -0.06 -0.01 -0.01 -0.00 -0.00 -0.00 -0.00 -0.00 -0.01 -0.02 -0.02 -0.01 -0.00 -0.00 -0.00 -0.00 -0.00 -0.00 -0.00 -0.02 -0.07 -0.22 -0.22 -0.25 -0.10 -0.06 -0.06 -0.09 -0.10 -0.08 -0.08 -0.06 -0.06 -0.06 -0.06 -0.07 -0.07 -0.07 -0.07 -0.06 -0.05 -0.05 -0.05 -0.06 -0.07 -0.08 -0.08 -0.05 -0.01 0.02 0.02 0.05 0.03 0.03 0.03 -0.06 0.02 0.02 0.03 -0.00 0.01 0.03 0.03 0.08 0.09 0.08 0.08 0.03 0.07 0.11 0.11 0.10 0.10 0.10 0.15 0.20 0.25 0.25 0.22 0.09
0.00 0.00 0.00 0.00 0.00 0.00 -0.00 0.00 -0.00 -0.00 -0.00 -0.00 -0.00 -0.00 -0.00 -0.00 -0.00 -0.00 -0.01 -0.01 -0.01 -0.01 -0.01 -0.05 -0.00 -0.00 -0.00 -0.00 -0.01 -0.01 -0.01 -0.01 -0.01 -0.01 -0.00 -0.00 -0.00 -0.00 -0.00 -0.00 -0.00 -0.00 -0.01 -0.05 -0.20 -0.20 -0.19 -0.14 -0.06 -0.06 -0.05 -0.06 -0.06 -0.06 -0.05 -0.06 -0.06 -0.06 -0.06 -0.05 -0.05 -0.07 -0.07 -0.05 -0.05 -0.05 -0.05 -0.08 -0.10 -0.10 -0.10 -0.04 -0.03 -0.03 0.01 0.02 0.02 0.04 0.04 0.05 0.05 0.01 0.00 -0.05 -0.01 -0.01 0.05 0.04 0.09 0.09 0.10 0.09 0.11 0.11 0.09 0.10 0.10 0.12 0.18 0.17 0.17 0.20 0.14
0.00 0.00 0.00 0.00 0.00 0.00 0.00 -0.00 -0.01 -0.01 -0.00 -0.00 -0.00 -0.00 -0.00 -0.00 -0.00 -0.00 -0.01 -0.01 -0.01 -0.01 -0.01 -0.04 -0.00 -0.00 -0.00 -0.01 -0.01 -0.01 -0.01 -0.01 -0.00 -0.00 -0.00 -0.00 -0.00 -0.00 -0.00 -0.00 -0.00 -0.00 -0.01 -0.03 -0.04 -0.04 -0.07 -0.09 -0.06 -0.06 -0.05 -0.06 -0.05 -0.05 -0.05 -0.05 -0.05 -0.06 -0.05 -0.05 -0.05 -0.05 -0.07 -0.05 -0.05 -0.05 -0.08 -0.09 -0.11 -0.11 -0.13 -0.09 -0.05 -0.05 -0.03 0.00 0.00 0.01 0.05 0.04 0.04 0.04 -0.02 -0.07 -0.04 -0.04 0.02 0.01 0.05 0.05 0.11 0.09 0.14 0.14 0.14 0.15 0.15 0.12 0.13 0.14 0.14 0.15 0.17
0.00 0.00 0.00 0.00 0.00 0.00 0.00 -0.00 -0.00 -0.00 -0.00 -0.00 -0.01 -0.01 -0.01 -0.00 -0.00 -0.00 -0.01 -0.01 -0.01 -0.00 -0.01 -0.04 -0.01 -0.01 -0.01 -0.01 -0.01 -0.01 -0.00 -0.00 -0.00 -0.00 -0.00 -0.00 -0.00 -0.00 -0.00 -0.00 -0.00 -0.00 -0.00 -0.02 -0.04 -0.04 -0.03 -0.03 -0.04 -0.04 -0.04 -0.06 -0.05 -0.05 -0.05 -0.05 -0.05 -0.05 -0.05 -0.05 -0.05 -0.06 -0.08 -0.07 -0.06 -0.06 -0.09 -0.12 -0.12 -0.12 -0.15 -0.14 -0.12 -0.12 -0.06 0.01 0.01 0.01 0.01 0.02 0.02 0.03 0.02 -0.04 -0.07 -0.07 -0.02 0.00 -0.07 -0.07 0.04 0.01 0.02 0.02 0.19 0.22 0.22 0.20 0.15 0.17 0.17 0.15 0.16
0.00 0.00 0.00 0.00 0.00 0.00 0.00 0.00 -0.00 -0.00 -0.00 -0.00 -0.01 -0.01 -0.01 -0.00 -0.00 -0.00 -0.00 -0.01 -0.01 -0.00 -0.01 -0.04 -0.00 -0.00 -0.00 -0.00 -0.00 -0.00 -0.00 -0.00 -0.01 -0.01 -0.01 -0.00 -0.00 -0.00 -0.00 -0.00 -0.00 -0.00 -0.00 -0.00 -0.04 -0.04 -0.05 -0.03 -0.03 -0.03 -0.04 -0.06 -0.06 -0.06 -0.06 -0.05 -0.05 -0.05 -0.05 -0.05 -0.05 -0.05 -0.07 -0.08 -0.11 -0.11 -0.12 -0.12 -0.13 -0.13 -0.16 -0.15 -0.14 -0.14 -0.14 -0.09 -0.09 0.01 0.01 0.02 0.02 0.01 0.02 0.00 -0.07 -0.07 -0.07 0.02 -0.04 -0.04 -0.13 -0.04 -0.07 -0.07 0.02 0.16 0.16 0.25 0.21 0.22 0.22 0.19 0.16
0.00 0.00 0.00 0.00 0.00 0.00 0.00 0.00 0.00 0.00 0.00 0.00 -0.01 -0.01 -0.01 -0.01 -0.01 -0.01 -0.00 -0.00 -0.00 -0.00 -0.02 -0.02 -0.00 -0.00 -0.00 -0.01 -0.02 -0.02 -0.02 -0.01 -0.01 -0.01 -0.00 -0.00 -0.00 -0.00 -0.00 -0.00 -0.00 -0.00 -0.00 -0.00 -0.02 -0.02 -0.04 -0.03 -0.03 -0.03 -0.04 -0.05 -0.08 -0.08 -0.08 -0.06 -0.06 -0.04 -0.04 -0.05 -0.05 -0.06 -0.08 -0.09 -0.13 -0.13 -0.14 -0.15 -0.15 -0.15 -0.18 -0.16 -0.14 -0.14 -0.15 -0.12 -0.12 -0.07 0.01 0.02 0.02 0.02 0.00 0.01 -0.00 -0.00 -0.04 -0.02 0.01 0.01 -0.09 -0.05 -0.09 -0.09 -0.13 -0.16 -0.16 0.14 0.24 0.27 0.27 0.25 0.22
0.00 0.00 0.00 0.00 0.00 0.00 0.00 0.00 0.00 0.00 0.00 0.00 -0.00 -0.00 -0.00 -0.01 -0.01 -0.01 -0.00 -0.00 -0.00 -0.00 -0.02 -0.02 -0.00 -0.00 -0.00 -0.01 -0.01 -0.01 -0.02 -0.01 -0.01 -0.01 -0.01 -0.00 -0.00 -0.00 -0.00 -0.00 -0.00 -0.00 -0.00 -0.00 -0.04 -0.04 -0.02 -0.03 -0.04 -0.04 -0.04 -0.05 -0.08 -0.08 -0.11 -0.08 -0.08 -0.05 -0.04 -0.05 -0.05 -0.07 -0.08 -0.09 -0.15 -0.15 -0.18 -0.19 -0.19 -0.19 -0.20 -0.16 -0.15 -0.15 -0.15 -0.15 -0.15 -0.11 -0.03 0.01 0.01 0.02 0.03 0.02 -0.00 -0.00 0.01 0.02 -0.01 -0.01 -0.06 -0.03 -0.03 -0.03 -0.11 -0.10 -0.10 0.01 0.12 0.14 0.14 0.27 0.24
0.00 0.00 0.00 0.00 0.00 0.00 0.00 0.00 0.00 0.00 0.00 0.00 -0.00 -0.00 -0.00 -0.00 -0.00 -0.00 -0.00 -0.00 -0.00 -0.00 -0.02 -0.01 0.00 0.00 -0.00 -0.00 -0.01 -0.01 -0.01 -0.01 -0.01 -0.01 -0.01 -0.00 -0.00 -0.00 -0.00 -0.01 -0.01 -0.02 -0.00 -0.00 -0.03 -0.03 -0.05 -0.05 -0.04 -0.04 -0.04 -0.04 -0.07 -0.07 -0.10 -0.09 -0.09 -0.06 -0.05 -0.05 -0.05 -0.06 -0.07 -0.09 -0.14 -0.14 -0.19 -0.22 -0.22 -0.22 -0.22 -0.20 -0.16 -0.16 -0.16 -0.15 -0.15 -0.14 -0.08 -0.01 -0.01 0.00 0.02 0.02 0.01 0.01 -0.00 -0.04 -0.01 -0.01 0.04 -0.03 0.03 0.03 0.02 0.00 0.00 -0.09 0.04 0.08 0.08 0.13 0.24
0.00 0.00 0.00 0.00 0.00 0.00 0.00 0.00 0.00 0.00 0.00 0.00 0.00 0.00 -0.00 -0.00 -0.00 -0.00 -0.00 0.00 0.00 -0.00 -0.01 0.00 -0.00 -0.00 -0.00 -0.00 -0.01 -0.01 -0.01 -0.03 -0.02 -0.02 -0.02 -0.02 -0.02 -0.02 -0.02 -0.02 -0.02 -0.03 -0.05 -0.02 -0.02 -0.02 -0.04 -0.03 -0.03 -0.03 -0.04 -0.04 -0.03 -0.03 -0.06 -0.10 -0.10 -0.09 -0.08 -0.08 -0.08 -0.08 -0.08 -0.08 -0.12 -0.12 -0.17 -0.22 -0.26 -0.26 -0.33 -0.30 -0.27 -0.27 -0.18 -0.16 -0.16 -0.14 -0.09 -0.08 -0.08 -0.04 0.00 0.00 0.02 0.02 -0.03 -0.05 -0.07 -0.07 -0.04 -0.05 -0.00 -0.00 -0.02 0.00 0.00 0.05 0.01 0.01 0.01 0.03 0.09
0.00 0.00 0.00 0.00 -0.00 -0.00 -0.00 -0.00 0.00 0.00 0.00 0.00 -0.00 -0.00 -0.00 -0.00 -0.00 -0.00 -0.00 -0.00 -0.00 -0.00 -0.01 -0.00 -0.00 -0.00 -0.00 -0.00 -0.01 -0.01 -0.03 -0.01 -0.01 -0.01 -0.01 -0.01 -0.01 -0.01 -0.01 -0.01 -0.01 -0.02 -0.04 -0.05 -0.03 -0.03 -0.06 -0.06 -0.03 -0.03 -0.03 -0.03 -0.04 -0.04 -0.05 -0.08 -0.08 -0.09 -0.09 -0.08 -0.08 -0.06 -0.08 -0.09 -0.11 -0.11 -0.16 -0.20 -0.29 -0.29 -0.36 -0.29 -0.27 -0.27 -0.25 -0.18 -0.18 -0.15 -0.14 -0.11 -0.11 -0.18 -0.10 -0.00 0.00 0.00 0.01 -0.01 -0.11 -0.11 -0.05 -0.09 -0.07 -0.07 -0.01 -0.01 -0.01 0.05 0.03 0.03 0.03 0.03 0.05
0.00 0.00 0.00 0.00 -0.00 -0.00 -0.00 0.00 0.00 0.00 0.00 0.00 -0.00 -0.00 -0.00 -0.01 -0.01 -0.01 -0.00 -0.00 -0.00 -0.03 -0.01 -0.00 -0.00 -0.00 -0.00 -0.00 -0.01 -0.01 -0.01 -0.01 -0.01 -0.01 -0.01 -0.01 -0.01 -0.01 -0.01 -0.01 -0.01 -0.01 -0.03 -0.04 -0.06 -0.06 -0.11 -0.13 -0.12 -0.12 -0.03 -0.03 -0.03 -0.03 -0.03 -0.06 -0.06 -0.16 -0.18 -0.08 -0.08 -0.09 -0.09 -0.10 -0.15 -0.15 -0.16 -0.20 -0.39 -0.39 -0.45 -0.43 -0.28 -0.28 -0.27 -0.23 -0.23 -0.17 -0.15 -0.23 -0.23 -0.18 -0.33 -0.25 0.00 0.00 0.00 -0.00 -0.06 -0.06 -0.16 -0.10 -0.11 -0.11 -0.07 -0.03 -0.03 0.01 0.06 0.10 0.10 0.07 0.04
0.00 0.00 0.00 0.00 0.00 0.00 0.00 0.00 0.00 0.00 -0.00 -0.00 -0.00 -0.00 -0.00 -0.01 -0.01 -0.00 -0.00 -0.00 -0.00 -0.04 -0.01 -0.00 0.00 0.00 -0.00 -0.00 -0.00 -0.00 -0.01 -0.00 -0.01 -0.01 -0.01 -0.01 -0.01 -0.01 -0.01 -0.01 -0.01 -0.01 -0.01 -0.02 -0.09 -0.09 -0.16 -0.18 -0.20 -0.20 -0.18 -0.13 -0.11 -0.11 -0.04 -0.11 -0.11 -0.17 -0.23 -0.16 -0.16 -0.13 -0.09 -0.11 -0.24 -0.24 -0.27 -0.23 -0.49 -0.49 -0.52 -0.55 -0.48 -0.48 -0.46 -0.33 -0.33 -0.24 -0.31 -0.32 -0.32 -0.30 -0.41 -0.34 -0.03 -0.03 -0.00 -0.00 -0.01 -0.01 -0.11 -0.13 -0.07 -0.07 -0.09 -0.08 -0.08 -0.05 0.01 0.03 0.03 0.11 0.07
0.00 0.00 0.00 0.00 0.00 0.00 0.00 0.00 0.00 0.00 -0.00 -0.00 -0.00 -0.00 -0.00 -0.00 -0.00 -0.00 -0.00 -0.01 -0.01 -0.05 -0.00 0.00 0.00 0.00 0.00 0.00 -0.00 -0.00 -0.00 -0.00 -0.00 -0.00 -0.01 -0.01 -0.01 -0.01 -0.01 -0.01 -0.01 -0.01 -0.01 -0.01 -0.03 -0.03 -0.11 -0.19 -0.22 -0.22 -0.25 -0.25 -0.20 -0.20 -0.11 -0.05 -0.05 -0.17 -0.25 -0.31 -0.31 -0.18 -0.11 -0.10 -0.18 -0.18 -0.35 -0.39 -0.46 -0.46 -0.57 -0.69 -0.63 -0.63 -0.70 -0.54 -0.54 -0.40 -0.48 -0.42 -0.42 -0.43 -0.42 -0.42 -0.22 -0.22 -0.03 -0.04 0.00 0.00 -0.02 -0.10 -0.11 -0.11 -0.06 -0.07 -0.07 -0.10 -0.06 -0.04 -0.04 0.02 0.10
0.00 0.00 0.00 0.00 0.00 0.00 0.00 0.00 0.00 0.00 -0.00 -0.00 -0.00 -0.00 -0.00 -0.00 -0.00 -0.00 -0.01 -0.04 -0.04 -0.05 -0.00 -0.00 0.00 0.00 0.00 0.00 -0.00 -0.00 -0.00 -0.00 -0.00 -0.00 -0.00 -0.01 -0.01 -0.01 -0.01 -0.01 -0.01 -0.01 -0.01 -0.01 -0.01 -0.01 -0.03 -0.11 -0.18 -0.18 -0.21 -0.24 -0.24 -0.24 -0.16 -0.08 -0.08 -0.16 -0.27 -0.29 -0.29 -0.29 -0.18 -0.14 -0.10 -0.10 -0.17 -0.37 -0.36 -0.36 -0.48 -0.75 -0.73 -0.73 -0.72 -0.60 -0.60 -0.54 -0.54 -0.61 -0.61 -0.52 -0.47 -0.54 -0.37 -0.37 -0.18 -0.09 -0.03 -0.03 0.00 -0.03 -0.07 -0.07 -0.10 -0.01 -0.01 -0.06 -0.08 -0.10 -0.10 -0.01 0.00
0.00 0.00 0.00 0.00 0.00 0.00 0.00 0.00 0.00 0.00 -0.00 -0.00 -0.00 -0.00 -0.00 -0.00 -0.00 -0.00 -0.00 -0.05 -0.05 -0.03 -0.00 0.00 -0.00 -0.00 0.00 -0.00 -0.00 -0.00 -0.00 -0.00 -0.00 -0.00 -0.00 -0.00 -0.00 -0.01 -0.01 -0.01 -0.01 -0.01 -0.01 -0.01 -0.01 -0.01 -0.01 -0.02 -0.09 -0.09 -0.22 -0.28 -0.32 -0.32 -0.20 -0.13 -0.13 -0.10 -0.28 -0.28 -0.28 -0.29 -0.25 -0.20 -0.09 -0.09 -0.10 -0.22 -0.43 -0.43 -0.38 -0.56 -0.69 -0.69 -0.67 -0.71 -0.71 -0.60 -0.59 -0.59 -0.59 -0.65 -0.60 -0.59 -0.49 -0.49 -0.27 -0.27 -0.08 -0.08 -0.04 -0.06 -0.01 -0.01 -0.03 -0.02 -0.02 -0.02 -0.04 -0.03 -0.03 -0.08 -0.01
0.00 0.00 0.00 0.00 0.00 0.00 0.00 0.00 0.00 0.00 -0.00 -0.00 -0.00 -0.00 -0.00 -0.01 -0.01 -0.01 -0.01 -0.04 -0.04 -0.01 -0.00 -0.00 -0.00 -0.00 -0.00 -0.00 -0.00 -0.00 -0.00 -0.00 -0.00 -0.00 -0.00 -0.00 -0.00 -0.01 -0.02 -0.01 -0.01 -0.01 -0.01 -0.01 -0.01 -0.01 -0.00 -0.00 -0.02 -0.02 -0.07 -0.17 -0.30 -0.30 -0.36 -0.26 -0.26 -0.15 -0.25 -0.33 -0.33 -0.32 -0.29 -0.25 -0.13 -0.13 -0.09 -0.12 -0.23 -0.23 -0.49 -0.46 -0.60 -0.60 -0.60 -0.65 -0.65 -0.71 -0.65 -0.62 -0.62 -0.61 -0.67 -0.67 -0.58 -0.58 -0.44 -0.44 -0.26 -0.26 -0.11 -0.11 -0.06 -0.06 -0.01 -0.01 -0.01 -0.00 -0.01 -0.01 -0.01 -0.01 -0.07
0.00 0.00 0.00 0.00 0.00 0.00 0.00 0.00 0.00 0.00 0.00 -0.00 -0.00 -0.00 -0.00 -0.01 -0.01 -0.01 -0.04 -0.03 -0.03 -0.00 -0.00 -0.00 -0.00 -0.00 -0.00 -0.00 -0.00 -0.00 -0.00 -0.00 -0.00 -0.00 -0.00 -0.01 -0.01 -0.01 -0.03 -0.03 -0.03 -0.02 -0.02 -0.02 -0.00 -0.00 -0.00 -0.00 -0.00 -0.00 -0.02 -0.02 -0.16 -0.16 -0.28 -0.35 -0.35 -0.24 -0.25 -0.39 -0.39 -0.32 -0.33 -0.29 -0.22 -0.22 -0.10 -0.09 -0.13 -0.13 -0.32 -0.52 -0.54 -0.54 -0.62 -0.62 -0.62 -0.66 -0.71 -0.67 -0.67 -0.61 -0.58 -0.67 -0.64 -0.64 -0.55 -0.50 -0.41 -0.41 -0.22 -0.18 -0.12 -0.12 -0.05 -0.01 -0.01 0.00 -0.00 -0.01 -0.01 -0.01 -0.01
0.00 0.00 0.00 0.00 0.00 0.00 0.00 0.00 0.00 0.00 0.00 -0.00 -0.00 -0.00 -0.00 -0.01 -0.01 -0.01 -0.07 -0.06 -0.06 -0.00 -0.00 -0.00 -0.00 -0.00 -0.01 -0.00 -0.00 -0.00 -0.00 -0.00 -0.00 -0.00 -0.00 -0.01 -0.01 -0.01 -0.03 -0.04 -0.04 -0.04 -0.02 -0.01 -0.00 -0.00 -0.00 -0.00 -0.00 -0.00 -0.00 -0.00 -0.08 -0.08 -0.16 -0.23 -0.23 -0.27 -0.27 -0.38 -0.38 -0.39 -0.33 -0.28 -0.26 -0.26 -0.19 -0.11 -0.13 -0.13 -0.22 -0.38 -0.60 -0.60 -0.64 -0.62 -0.62 -0.69 -0.70 -0.69 -0.69 -0.64 -0.58 -0.50 -0.62 -0.62 -0.59 -0.54 -0.45 -0.45 -0.40 -0.36 -0.17 -0.17 -0.11 -0.11 -0.11 0.00 0.00 0.00 0.00 -0.00 -0.00
0.00 0.00 0.00 0.00 0.00 0.00 0.00 0.00 0.00 0.00 0.00 0.00 -0.00 -0.00 -0.00 -0.00 -0.00 -0.03 -0.08 -0.03 -0.03 -0.00 -0.00 -0.00 -0.00 -0.00 -0.00 -0.00 -0.00 -0.00 -0.00 -0.00 -0.00 -0.00 -0.00 -0.01 -0.01 -0.03 -0.03 -0.04 -0.04 -0.05 -0.02 -0.01 -0.02 -0.02 -0.01 -0.00 -0.00 -0.00 -0.00 -0.01 -0.01 -0.01 -0.08 -0.14 -0.14 -0.19 -0.24 -0.34 -0.34 -0.42 -0.36 -0.30 -0.27 -0.27 -0.24 -0.17 -0.13 -0.13 -0.18 -0.38 -0.61 -0.61 -0.64 -0.69 -0.69 -0.66 -0.66 -0.69 -0.69 -0.58 -0.55 -0.50 -0.51 -0.51 -0.53 -0.49 -0.52 -0.52 -0.42 -0.42 -0.32 -0.32 -0.18 -0.17 -0.17 -0.11 0.00 0.00 0.00 0.00 -0.01
0.00 0.00 0.00 0.00 0.00 0.00 0.00 0.00 0.00 0.00 0.00 0.00 -0.00 -0.00 -0.00 -0.00 -0.00 -0.06 -0.04 -0.01 -0.01 -0.00 -0.00 -0.00 -0.01 -0.01 -0.00 -0.01 -0.00 -0.00 -0.00 -0.00 -0.00 -0.00 -0.01 -0.02 -0.02 -0.02 -0.02 -0.02 -0.02 -0.03 -0.04 -0.03 -0.03 -0.03 -0.02 -0.01 -0.00 -0.00 -0.00 -0.00 -0.01 -0.01 -0.05 -0.07 -0.07 -0.06 -0.13 -0.24 -0.24 -0.43 -0.41 -0.37 -0.28 -0.28 -0.27 -0.19 -0.16 -0.16 -0.17 -0.31 -0.43 -0.43 -0.61 -0.69 -0.69 -0.72 -0.70 -0.64 -0.64 -0.66 -0.52 -0.45 -0.44 -0.44 -0.50 -0.48 -0.45 -0.45 -0.52 -0.46 -0.39 -0.39 -0.28 -0.23 -0.23 -0.16 -0.10 0.00 0.00 0.00 0.00
0.00 0.00 0.00 0.00 0.00 0.00 0.00 0.00 0.00 0.00 0.00 0.00 -0.00 -0.00 -0.00 -0.00 -0.00 -0.03 -0.02 -0.01 -0.01 -0.01 -0.01 -0.01 -0.01 -0.01 -0.01 -0.00 -0.00 -0.00 -0.00 -0.00 -0.01 -0.01 -0.01 -0.01 -0.01 -0.01 -0.01 -0.01 -0.01 -0.02 -0.03 -0.04 -0.06 -0.06 -0.04 -0.01 -0.01 -0.01 -0.00 -0.00 -0.00 -0.00 -0.01 -0.04 -0.04 -0.03 -0.04 -0.13 -0.13 -0.28 -0.44 -0.33 -0.30 -0.30 -0.27 -0.23 -0.19 -0.19 -0.13 -0.23 -0.31 -0.31 -0.50 -0.66 -0.66 -0.71 -0.73 -0.67 -0.67 -0.65 -0.65 -0.48 -0.42 -0.42 -0.39 -0.42 -0.46 -0.46 -0.46 -0.47 -0.44 -0.44 -0.40 -0.38 -0.38 -0.25 -0.15 -0.13 -0.13 0.00 0.00
0.00 0.00 0.00 0.00 0.00 0.00 0.00 0.00 0.00 0.00 0.00 0.00 -0.00 -0.00 -0.00 -0.01 -0.01 -0.02 -0.01 -0.01 -0.01 -0.01 -0.01 -0.01 -0.01 -0.01 -0.00 -0.01 -0.01 -0.01 -0.01 -0.01 -0.01 -0.01 -0.01 -0.01 -0.01 -0.00 -0.00 -0.00 -0.00 -0.01 -0.02 -0.01 -0.07 -0.07 -0.06 -0.04 -0.01 -0.01 -0.01 -0.00 -0.01 -0.01 -0.01 -0.02 -0.02 -0.04 -0.04 -0.07 -0.07 -0.12 -0.26 -0.25 -0.27 -0.27 -0.24 -0.21 -0.18 -0.18 -0.15 -0.14 -0.23 -0.23 -0.44 -0.58 -0.58 -0.76 -0.78 -0.73 -0.73 -0.67 -0.68 -0.63 -0.47 -0.47 -0.40 -0.42 -0.43 -0.43 -0.42 -0.46 -0.46 -0.46 -0.42 -0.41 -0.41 -0.38 -0.25 -0.24 -0.24 -0.11 0.00
0.00 0.00 0.00 0.00 0.00 0.00 0.00 0.00 0.00 0.00 0.00 -0.00 -0.00 -0.00 -0.00 -0.01 -0.01 -0.01 -0.01 -0.01 -0.01 -0.01 -0.01 -0.00 -0.00 -0.00 -0.01 -0.00 -0.01 -0.01 -0.00 -0.00 -0.01 -0.01 -0.01 -0.00 -0.00 -0.00 -0.00 -0.00 -0.00 -0.00 -0.00 -0.00 -0.03 -0.03 -0.05 -0.05 -0.03 -0.03 -0.02 -0.02 -0.01 -0.01 -0.01 -0.03 -0.03 -0.06 -0.05 -0.05 -0.05 -0.05 -0.11 -0.19 -0.17 -0.17 -0.18 -0.10 -0.12 -0.12 -0.13 -0.12 -0.12 -0.12 -0.28 -0.52 -0.52 -0.73 -0.79 -0.81 -0.81 -0.76 -0.68 -0.62 -0.59 -0.59 -0.43 -0.41 -0.41 -0.41 -0.44 -0.43 -0.45 -0.45 -0.47 -0.40 -0.40 -0.38 -0.36 -0.28 -0.28 -0.23 -0.10
0.00 0.00 0.00 0.00 0.00 0.00 0.00 0.00 0.00 0.00 0.00 -0.00 -0.00 -0.00 -0.00 -0.01 -0.01 -0.01 -0.01 -0.01 -0.01 -0.01 -0.00 -0.01 -0.01 -0.01 -0.00 -0.00 -0.01 -0.01 -0.00 -0.00 -0.00 -0.00 -0.01 -0.00 -0.00 -0.00 -0.00 -0.00 -0.00 -0.00 -0.00 -0.00 -0.00 -0.00 -0.05 -0.07 -0.05 -0.05 -0.06 -0.05 -0.03 -0.03 -0.02 -0.03 -0.03 -0.05 -0.10 -0.10 -0.10 -0.09 -0.14 -0.21 -0.25 -0.25 -0.13 -0.10 -0.07 -0.07 -0.10 -0.11 -0.11 -0.11 -0.12 -0.32 -0.32 -0.59 -0.74 -0.82 -0.82 -0.82 -0.80 -0.67 -0.56 -0.56 -0.55 -0.45 -0.39 -0.39 -0.38 -0.39 -0.40 -0.40 -0.44 -0.42 -0.42 -0.39 -0.36 -0.36 -0.36 -0.28 -0.20
0.00 0.00 0.00 0.00 0.00 0.00 0.00 0.00 0.00 0.00 0.00 -0.00 -0.00 -0.00 -0.00 -0.00 -0.00 -0.01 -0.01 -0.01 -0.01 -0.01 -0.01 -0.00 -0.00 -0.00 -0.00 -0.01 -0.00 -0.00 -0.00 -0.00 -0.00 -0.00 -0.00 -0.00 -0.00 -0.00 -0.00 -0.00 -0.00 -0.00 -0.00 -0.00 -0.00 -0.00 -0.05 -0.10 -0.09 -0.09 -0.10 -0.10 -0.09 -0.09 -0.05 -0.04 -0.04 -0.06 -0.10 -0.12 -0.12 -0.13 -0.12 -0.17 -0.27 -0.27 -0.26 -0.12 -0.09 -0.09 -0.07 -0.11 -0.09 -0.09 -0.11 -0.17 -0.17 -0.40 -0.54 -0.77 -0.77 -0.77 -0.77 -0.69 -0.64 -0.64 -0.54 -0.52 -0.42 -0.42 -0.37 -0.37 -0.37 -0.37 -0.36 -0.36 -0.36 -0.33 -0.37 -0.35 -0.35 -0.34 -0.27
0.00 0.00 0.00 0.00 0.00 0.00 0.00 0.00 0.00 0.00 0.00 -0.00 -0.00 -0.00 -0.00 -0.00 -0.00 -0.01 -0.01 -0.01 -0.01 -0.01 -0.01 -0.00 -0.00 -0.00 -0.00 -0.00 -0.00 -0.00 -0.00 -0.00 -0.00 -0.00 -0.01 -0.00 -0.00 -0.00 -0.00 -0.00 -0.00 -0.00 -0.00 -0.00 0.00 0.00 -0.00 -0.07 -0.10 -0.10 -0.08 -0.09 -0.10 -0.10 -0.10 -0.07 -0.07 -0.10 -0.11 -0.14 -0.14 -0.14 -0.13 -0.18 -0.23 -0.23 -0.25 -0.19 -0.11 -0.11 -0.08 -0.11 -0.10 -0.10 -0.10 -0.12 -0.12 -0.28 -0.42 -0.64 -0.64 -0.82 -0.88 -0.81 -0.66 -0.66 -0.62 -0.61 -0.52 -0.52 -0.44 -0.43 -0.38 -0.38 -0.35 -0.35 -0.35 -0.35 -0.31 -0.27 -0.27 -0.32 -0.33
0.00 0.00 0.00 0.00 0.00 0.00 0.00 0.00 0.00 0.00 0.00 0.00 0.00 0.00 -0.00 -0.00 -0.00 -0.01 -0.00 -0.00 -0.00 -0.00 -0.00 -0.00 -0.00 -0.00 -0.00 -0.00 -0.00 -0.00 -0.00 -0.01 -0.01 -0.01 -0.01 -0.00 -0.00 -0.00 -0.00 0.00 0.00 -0.00 -0.00 0.00 0.00 0.00 0.00 -0.02 -0.07 -0.07 -0.04 -0.05 -0.07 -0.07 -0.10 -0.11 -0.11 -0.11 -0.12 -0.18 -0.18 -0.13 -0.14 -0.12 -0.22 -0.22 -0.28 -0.27 -0.17 -0.17 -0.11 -0.10 -0.09 -0.09 -0.09 -0.10 -0.10 -0.12 -0.19 -0.52 -0.52 -0.71 -0.81 -0.84 -0.80 -0.80 -0.67 -0.64 -0.62 -0.62 -0.55 -0.49 -0.43 -0.43 -0.37 -0.35 -0.35 -0.35 -0.32 -0.32 -0.32 -0.26 -0.30
0.00 0.00 0.00 0.00 0.00 0.00 0.00 0.00 0.00 0.00 0.00 0.00 0.00 0.00 -0.00 -0.00 -0.00 -0.00 -0.00 -0.00 -0.00 -0.00 -0.00 -0.00 -0.00 -0.00 -0.00 -0.00 -0.00 -0.00 -0.00 -0.01 -0.01 -0.01 -0.01 -0.01 -0.01 -0.00 -0.00 -0.00 -0.00 -0.00 -0.00 -0.00 -0.00 -0.00 0.00 0.00 -0.02 -0.02 -0.01 -0.03 -0.04 -0.04 -0.06 -0.03 -0.03 -0.06 -0.09 -0.14 -0.14 -0.17 -0.13 -0.16 -0.16 -0.16 -0.23 -0.19 -0.22 -0.22 -0.16 -0.12 -0.10 -0.10 -0.09 -0.09 -0.09 -0.10 -0.12 -0.30 -0.30 -0.57 -0.65 -0.84 -0.82 -0.82 -0.84 -0.75 -0.66 -0.66 -0.63 -0.64 -0.55 -0.55 -0.45 -0.48 -0.48 -0.41 -0.36 -0.34 -0.34 -0.29 -0.26
0.00 0.00 0.00 0.00 0.00 0.00 0.00 0.00 0.00 0.00 0.00 0.00 0.00 0.00 -0.00 -0.00 -0.00 -0.00 -0.00 -0.00 -0.00 -0.00 -0.00 -0.00 -0.00 -0.00 -0.00 -0.00 -0.00 -0.00 -0.01 -0.01 -0.01 -0.01 -0.01 -0.01 -0.01 -0.00 -0.00 -0.00 -0.00 -0.00 -0.00 -0.00 -0.00 -0.00 -0.00 -0.00 -0.00 -0.00 -0.00 -0.00 -0.00 -0.00 -0.02 -0.00 -0.00 -0.00 -0.02 -0.06 -0.06 -0.12 -0.07 -0.07 -0.13 -0.13 -0.19 -0.15 -0.13 -0.13 -0.14 -0.11 -0.07 -0.07 -0.07 -0.08 -0.08 -0.10 -0.09 -0.18 -0.18 -0.41 -0.47 -0.69 -0.89 -0.89 -0.83 -0.83 -0.76 -0.76 -0.67 -0.71 -0.65 -0.65 -0.56 -0.57 -0.57 -0.46 -0.42 -0.39 -0.39 -0.35 -0.32
0.00 0.00 0.00 0.00 0.00 0.00 0.00 0.00 0.00 0.00 0.00 0.00 0.00 0.00 -0.00 -0.00 -0.00 -0.00 -0.00 0.00 0.00 0.00 -0.00 -0.00 -0.00 -0.00 -0.00 -0.00 -0.01 -0.01 -0.00 -0.00 -0.01 -0.01 -0.00 -0.01 -0.01 -0.01 -0.00 -0.00 -0.00 -0.00 -0.00 -0.00 -0.01 -0.01 -0.00 -0.00 -0.00 -0.00 -0.00 -0.00 0.00 0.00 -0.00 -0.00 -0.00 -0.00 -0.00 -0.02 -0.02 -0.07 -0.07 -0.07 -0.07 -0.07 -0.11 -0.13 -0.12 -0.12 -0.10 -0.10 -0.08 -0.08 -0.06 -0.05 -0.05 -0.04 -0.07 -0.10 -0.10 -0.25 -0.24 -0.47 -0.64 -0.64 -0.68 -0.72 -0.68 -0.68 -0.74 -0.70 -0.71 -0.71 -0.65 -0.57 -0.57 -0.56 -0.46 -0.46 -0.46 -0.39 -0.37
0.00 0.00 0.00 0.00 0.00 0.00 0.00 0.00 0.00 0.00 0.00 0.00 0.00 0.00 0.00 -0.00 -0.00 -0.00 0.00 0.00 0.00 0.00 0.00 0.00 -0.00 -0.00 -0.01 -0.01 -0.01 -0.01 -0.01 -0.00 -0.01 -0.01 -0.01 -0.01 -0.01 -0.01 -0.00 -0.00 -0.00 0.00 -0.00 -0.00 -0.01 -0.01 -0.01 -0.01 -0.00 -0.00 -0.00 0.00 0.00 0.00 0.00 -0.00 -0.00 -0.00 -0.00 -0.01 -0.01 -0.03 -0.03 -0.08 -0.08 -0.08 -0.11 -0.11 -0.14 -0.14 -0.12 -0.08 -0.09 -0.09 -0.08 -0.08 -0.08 -0.09 -0.06 -0.10 -0.10 -0.10 -0.15 -0.21 -0.51 -0.51 -0.54 -0.67 -0.65 -0.65 -0.62 -0.64 -0.69 -0.69 -0.67 -0.66 -0.66 -0.56 -0.52 -0.50 -0.50 -0.48 -0.41
0.00 0.00 0.00 0.00 0.00 0.00 0.00 0.00 0.00 0.00 0.00 0.00 0.00 0.00 0.00 0.00 0.00 0.00 0.00 0.00 0.00 0.00 0.00 0.00 -0.00 -0.00 -0.00 -0.01 -0.01 -0.01 -0.01 -0.00 -0.00 -0.00 -0.01 -0.01 -0.01 -0.00 -0.00 0.00 0.00 0.00 0.00 -0.00 -0.00 -0.00 -0.00 -0.00 0.00 0.00 0.00 0.00 0.00 0.00 0.00 0.00 0.00 -0.00 -0.00 -0.00 -0.00 -0.01 -0.01 -0.01 -0.05 -0.05 -0.05 -0.03 -0.05 -0.05 -0.10 -0.13 -0.10 -0.10 -0.07 -0.10 -0.10 -0.10 -0.07 -0.07 -0.07 -0.11 -0.13 -0.14 -0.20 -0.20 -0.28 -0.54 -0.61 -0.61 -0.81 -0.86 -0.69 -0.69 -0.72 -0.79 -0.79 -0.71 -0.63 -0.61 -0.61 -0.50 -0.47
0.00 0.00 0.00 0.00 0.00 0.00 0.00 0.00 0.00 0.00 0.00 0.00 0.00 0.00 0.00 0.00 0.00 0.00 0.00 0.00 0.00 0.00 0.00 0.00 -0.00 -0.00 -0.00 -0.00 -0.00 -0.00 -0.01 -0.00 -0.01 -0.01 -0.01 -0.00 -0.00 -0.00 0.00 0.00 0.00 0.00 0.00 0.00 -0.00 -0.00 -0.00 -0.00 0.00 0.00 0.00 0.00 0.00 0.00 0.00 0.00 0.00 -0.00 -0.01 -0.01 -0.01 -0.01 -0.02 -0.02 -0.03 -0.03 -0.05 -0.04 -0.03 -0.03 -0.04 -0.07 -0.09 -0.09 -0.08 -0.07 -0.07 -0.09 -0.08 -0.07 -0.07 -0.06 -0.11 -0.13 -0.13 -0.13 -0.27 -0.35 -0.60 -0.60 -0.70 -0.82 -0.90 -0.90 -0.72 -0.72 -0.72 -0.84 -0.70 -0.69 -0.69 -0.63 -0.49
0.00 0.00 0.00 0.00 0.00 0.00 0.00 0.00 0.00 0.00 0.00 0.00 0.00 0.00 0.00 0.00 0.00 0.00 0.00 0.00 0.00 0.00 0.00 0.00 0.00 0.00 -0.00 -0.00 -0.00 -0.00 -0.00 -0.00 -0.02 -0.02 -0.01 -0.00 -0.00 0.00 0.00 0.00 0.00 0.00 0.00 0.00 -0.00 -0.00 -0.00 0.00 0.00 0.00 0.00 0.00 0.00 0.00 0.00 0.00 0.00 -0.00 -0.01 -0.02 -0.02 -0.02 -0.01 -0.01 -0.02 -0.02 -0.02 -0.05 -0.04 -0.04 -0.04 -0.07 -0.09 -0.09 -0.11 -0.09 -0.09 -0.09 -0.07 -0.07 -0.07 -0.06 -0.07 -0.12 -0.12 -0.12 -0.18 -0.31 -0.38 -0.38 -0.62 -0.67 -0.87 -0.87 -0.91 -0.95 -0.95 -0.75 -0.86 -0.78 -0.78 -0.68 -0.62
0.00 0.00 0.00 0.00 0.00 0.00 0.00 0.00 0.00 0.00 0.00 0.00 0.00 0.00 0.00 0.00 0.00 0.00 0.00 0.00 0.00 0.00 0.00 0.00 0.00 0.00 0.00 0.00 -0.00 -0.00 -0.00 -0.01 -0.00 -0.00 -0.00 0.00 0.00 0.00 0.00 0.00 0.00 0.00 0.00 0.00 0.00 0.00 0.00 0.00 0.00 0.00 0.00 0.00 0.00 0.00 0.00 0.00 0.00 0.00 -0.00 -0.01 -0.01 -0.01 -0.01 -0.01 -0.01 -0.01 -0.01 -0.02 -0.04 -0.04 -0.06 -0.09 -0.09 -0.09 -0.13 -0.15 -0.15 -0.15 -0.10 -0.06 -0.06 -0.06 -0.12 -0.13 -0.17 -0.17 -0.19 -0.21 -0.33 -0.33 -0.35 -0.45 -0.71 -0.71 -0.93 -0.94 -0.94 -0.97 -0.76 -0.83 -0.83 -0.78 -0.67
0.00 0.00 0.00 0.00 0.00 0.00 0.00 0.00 0.00 0.00 0.00 0.00 0.00 0.00 0.00 0.00 0.00 0.00 0.00 0.00 0.00 0.00 0.00 0.00 0.00 0.00 0.00 0.00 0.00 0.00 -0.00 -0.00 -0.00 -0.00 0.00 0.00 0.00 0.00 0.00 0.00 0.00 0.00 0.00 0.00 0.00 0.00 0.00 0.00 0.00 0.00 0.00 0.00 0.00 0.00 0.00 0.00 0.00 0.00 -0.00 -0.00 -0.00 -0.00 -0.01 -0.01 -0.00 -0.00 -0.01 -0.02 -0.03 -0.03 -0.06 -0.08 -0.09 -0.09 -0.11 -0.15 -0.15 -0.15 -0.14 -0.12 -0.12 -0.12 -0.17 -0.18 -0.18 -0.18 -0.22 -0.21 -0.23 -0.23 -0.24 -0.35 -0.47 -0.47 -0.71 -0.73 -0.73 -0.94 -0.97 -1.00 -1.00 -0.84 -0.81
0.00 0.00 0.00 0.00 0.00 0.00 0.00 0.00 0.00 0.00 0.00 0.00 0.00 0.00 0.00 0.00 0.00 0.00 0.00 0.00 0.00 0.00 0.00 0.00 0.00 0.00 0.00 0.00 -0.00 -0.00 -0.00 0.00 0.00 0.00 0.00 -0.00 -0.00 0.00 0.00 0.00 0.00 0.00 0.00 0.00 0.00 0.00 0.00 0.00 0.00 0.00 0.00 0.00 0.00 0.00 0.00 0.00 0.00 0.00 0.00 -0.00 -0.00 -0.00 -0.00 -0.00 -0.00 -0.00 -0.00 -0.01 -0.02 -0.02 -0.04 -0.08 -0.09 -0.09 -0.11 -0.15 -0.15 -0.25 -0.21 -0.18 -0.18 -0.16 -0.19 -0.21 -0.22 -0.22 -0.24 -0.24 -0.22 -0.22 -0.25 -0.27 -0.37 -0.37 -0.50 -0.51 -0.51 -0.71 -0.94 -0.95 -0.95 -1.00 -0.86
0.00 0.00 0.00 0.00 0.00 0.00 0.00 0.00 0.00 0.00 0.00 0.00 0.00 0.00 0.00 0.00 0.00 0.00 0.00 0.00 0.00 0.00 0.00 0.00 0.00 0.00 0.00 -0.00 0.00 0.00 0.00 0.00 0.00 0.00 -0.00 -0.00 -0.00 -0.00 0.00 0.00 0.00 0.00 0.00 0.00 0.00 0.00 0.00 0.00 0.00 0.00 0.00 0.00 0.00 0.00 0.00 0.00 0.00 0.00 0.00 -0.00 -0.00 -0.01 -0.00 -0.00 -0.00 -0.00 -0.00 -0.00 -0.01 -0.01 -0.03 -0.05 -0.10 -0.10 -0.11 -0.16 -0.16 -0.24 -0.31 -0.28 -0.28 -0.22 -0.26 -0.25 -0.24 -0.24 -0.29 -0.25 -0.25 -0.25 -0.28 -0.28 -0.26 -0.26 -0.40 -0.44 -0.44 -0.54 -0.76 -0.86 -0.86 -0.95 -0.96
0.00 0.00 0.00 0.00 0.00 0.00 0.00 0.00 0.00 0.00 0.00 0.00 0.00 0.00 0.00 0.00 0.00 0.00 0.00 0.00 0.00 0.00 0.00 0.00 0.00 0.00 0.00 0.00 0.00 0.00 0.00 0.00 0.00 0.00 0.00 -0.00 -0.00 -0.00 -0.00 -0.00 -0.00 0.00 0.00 0.00 0.00 0.00 0.00 0.00 0.00 0.00 0.00 0.00 0.00 0.00 0.00 0.00 0.00 0.00 0.00 -0.00 -0.00 -0.01 -0.00 -0.00 -0.00 -0.00 -0.00 -0.00 -0.00 -0.00 -0.02 -0.04 -0.09 -0.09 -0.11 -0.16 -0.16 -0.22 -0.30 -0.37 -0.37 -0.35 -0.37 -0.31 -0.29 -0.29 -0.29 -0.32 -0.29 -0.29 -0.33 -0.33 -0.33 -0.33 -0.27 -0.39 -0.39 -0.47 -0.60 -0.65 -0.65 -0.90 -0.99
0.00 0.00 0.00 0.00 0.00 0.00 0.00 0.00 0.00 0.00 0.00 0.00 0.00 0.00 0.00 0.00 0.00 0.00 0.00 0.00 0.00 0.00 0.00 0.00 0.00 0.00 0.00 0.00 0.00 0.00 0.00 0.00 0.00 0.00 -0.00 -0.00 -0.00 -0.00 -0.00 -0.01 -0.01 -0.00 0.00 0.00 0.00 0.00 0.00 0.00 0.00 0.00 0.00 0.00 0.00 0.00 0.00 -0.00 -0.00 0.00 0.00 -0.00 -0.00 -0.01 -0.01 -0.00 -0.00 -0.00 -0.00 -0.00 -0.00 -0.00 -0.01 -0.02 -0.05 -0.05 -0.10 -0.15 -0.15 -0.16 -0.24 -0.33 -0.33 -0.40 -0.43 -0.39 -0.33 -0.33 -0.27 -0.29 -0.32 -0.32 -0.27 -0.33 -0.35 -0.35 -0.33 -0.35 -0.35 -0.45 -0.53 -0.64 -0.64 -0.71 -0.84
0.00 0.00 0.00 0.00 0.00 0.00 0.00 0.00 0.00 0.00 0.00 0.00 0.00 0.00 0.00 0.00 0.00 0.00 0.00 0.00 0.00 0.00 0.00 0.00 0.00 0.00 0.00 0.00 0.00 0.00 0.00 0.00 0.00 0.00 -0.00 -0.00 -0.00 -0.00 -0.01 -0.01 -0.01 -0.00 0.00 0.00 0.00 0.00 0.00 0.00 0.00 0.00 0.00 0.00 0.00 0.00 -0.00 -0.00 -0.00 -0.00 -0.00 -0.00 -0.00 -0.02 -0.02 -0.01 -0.00 -0.00 -0.02 -0.01 -0.01 -0.01 -0.01 -0.02 -0.03 -0.03 -0.07 -0.10 -0.10 -0.15 -0.19 -0.28 -0.28 -0.29 -0.40 -0.45 -0.41 -0.41 -0.42 -0.25 -0.22 -0.22 -0.22 -0.25 -0.35 -0.35 -0.34 -0.38 -0.38 -0.40 -0.47 -0.58 -0.58 -0.67 -0.76
0.00 0.00 0.00 0.00 0.00 0.00 0.00 0.00 0.00 0.00 0.00 0.00 0.00 0.00 0.00 0.00 0.00 0.00 0.00 0.00 0.00 0.00 0.00 0.00 0.00 0.00 0.00 0.00 0.00 0.00 0.00 0.00 0.00 0.00 0.00 -0.00 -0.00 -0.00 -0.00 -0.00 -0.00 -0.00 -0.00 -0.00 0.00 0.00 0.00 0.00 0.00 0.00 0.00 -0.00 -0.01 -0.01 -0.00 -0.00 -0.00 -0.00 -0.00 0.00 0.00 -0.01 -0.06 -0.03 -0.02 -0.02 -0.04 -0.04 -0.03 -0.03 -0.01 -0.04 -0.04 -0.04 -0.07 -0.09 -0.09 -0.12 -0.16 -0.20 -0.20 -0.22 -0.31 -0.41 -0.47 -0.47 -0.49 -0.45 -0.24 -0.24 -0.29 -0.29 -0.30 -0.30 -0.34 -0.37 -0.37 -0.40 -0.43 -0.38 -0.38 -0.59 -0.72
0.00 0.00 0.00 0.00 0.00 0.00 0.00 0.00 0.00 0.00 0.00 0.00 0.00 0.00 0.00 0.00 0.00 0.00 0.00 0.00 0.00 0.00 0.00 0.00 0.00 0.00 0.00 0.00 0.00 0.00 0.00 0.00 0.00 0.00 0.00 -0.00 -0.00 -0.01 -0.00 -0.00 -0.00 -0.00 -0.00 -0.00 -0.00 -0.00 -0.00 -0.00 -0.01 -0.01 -0.01 -0.01 0.00 0.00 0.00 0.00 0.00 0.00 0.00 0.00 0.00 -0.00 -0.03 -0.09 -0.05 -0.05 -0.08 -0.05 -0.05 -0.05 -0.04 -0.05 -0.06 -0.06 -0.09 -0.09 -0.09 -0.12 -0.14 -0.20 -0.20 -0.25 -0.25 -0.33 -0.45 -0.45 -0.41 -0.45 -0.48 -0.48 -0.51 -0.33 -0.33 -0.33 -0.34 -0.37 -0.37 -0.37 -0.45 -0.43 -0.43 -0.45 -0.55
0.00 0.00 0.00 0.00 0.00 0.00 0.00 0.00 0.00 0.00 0.00 0.00 0.00 0.00 0.00 0.00 0.00 0.00 0.00 0.00 0.00 0.00 0.00 0.00 0.00 0.00 0.00 0.00 -0.00 -0.00 0.00 0.00 0.00 0.00 0.00 0.00 0.00 -0.00 -0.00 -0.01 -0.01 -0.00 -0.00 0.00 -0.00 -0.00 -0.00 -0.00 -0.00 -0.00 0.00 0.00 0.00 0.00 0.00 0.00 0.00 0.00 0.00 0.00 0.00 -0.00 -0.01 -0.07 -0.16 -0.16 -0.12 -0.10 -0.06 -0.06 -0.08 -0.10 -0.09 -0.09 -0.14 -0.14 -0.14 -0.21 -0.17 -0.18 -0.18 -0.25 -0.30 -0.28 -0.33 -0.33 -0.27 -0.34 -0.43 -0.43 -0.44 -0.47 -0.35 -0.35 -0.38 -0.38 -0.38 -0.39 -0.40 -0.48 -0.48 -0.50 -0.56
0.00 0.00 0.00 0.00 0.00 0.00 0.00 0.00 0.00 0.00 0.00 0.00 0.00 0.00 0.00 0.00 0.00 0.00 0.00 0.00 0.00 0.00 0.00 0.00 0.00 0.00 0.00 0.00 -0.00 -0.00 -0.00 0.00 0.00 0.00 0.00 0.00 0.00 0.00 0.00 -0.01 -0.01 -0.00 0.00 0.00 -0.00 -0.00 0.00 0.00 -0.00 -0.00 0.00 0.00 0.00 0.00 0.00 0.00 0.00 -0.00 -0.00 -0.00 -0.00 0.00 -0.01 -0.05 -0.08 -0.08 -0.17 -0.15 -0.13 -0.13 -0.10 -0.11 -0.10 -0.10 -0.10 -0.10 -0.10 -0.23 -0.22 -0.21 -0.21 -0.26 -0.33 -0.35 -0.30 -0.30 -0.34 -0.27 -0.34 -0.34 -0.35 -0.42 -0.44 -0.44 -0.41 -0.39 -0.39 -0.43 -0.44 -0.61 -0.61 -0.59 -0.67
0.00 0.00 0.00 0.00 0.00 0.00 0.00 0.00 0.00 0.00 0.00 0.00 0.00 0.00 0.00 0.00 0.00 0.00 0.00 0.00 0.00 0.00 0.00 0.00 0.00 0.00 0.00 0.00 -0.00 -0.00 -0.00 -0.00 0.00 0.00 0.00 0.00 0.00 0.00 0.00 -0.00 -0.00 -0.00 -0.00 0.00 -0.01 -0.01 -0.00 -0.00 -0.01 -0.01 -0.01 0.00 0.00 0.00 0.00 0.00 0.00 -0.01 -0.00 -0.01 -0.01 -0.01 -0.00 -0.02 -0.03 -0.03 -0.08 -0.18 -0.15 -0.15 -0.13 -0.13 -0.10 -0.10 -0.09 -0.08 -0.08 -0.09 -0.22 -0.26 -0.26 -0.28 -0.33 -0.38 -0.41 -0.41 -0.51 -0.42 -0.36 -0.36 -0.35 -0.38 -0.41 -0.41 -0.40 -0.47 -0.47 -0.50 -0.56 -0.64 -0.64 -0.69 -0.73
0.00 0.00 0.00 0.00 0.00 0.00 0.00 0.00 0.00 0.00 0.00 0.00 0.00 0.00 0.00 0.00 0.00 0.00 0.00 0.00 0.00 0.00 0.00 0.00 0.00 0.00 0.00 0.00 0.00 0.00 -0.00 -0.00 -0.00 -0.00 0.00 0.00 0.00 -0.00 -0.00 0.00 0.00 -0.00 -0.00 -0.01 -0.02 -0.02 -0.03 -0.03 -0.04 -0.04 -0.02 0.00 0.00 0.00 -0.00 0.00 0.00 -0.00 -0.01 -0.01 -0.01 -0.01 -0.01 -0.01 -0.02 -0.02 -0.03 -0.07 -0.16 -0.16 -0.14 -0.13 -0.12 -0.12 -0.10 -0.09 -0.09 -0.09 -0.07 -0.20 -0.20 -0.18 -0.29 -0.39 -0.49 -0.49 -0.63 -0.57 -0.48 -0.48 -0.54 -0.37 -0.36 -0.36 -0.36 -0.39 -0.39 -0.45 -0.52 -0.49 -0.49 -0.64 -0.74
0.00 0.00 0.00 0.00 0.00 0.00 0.00 0.00 0.00 0.00 0.00 0.00 0.00 0.00 0.00 0.00 0.00 0.00 0.00 0.00 0.00 0.00 0.00 0.00 0.00 0.00 0.00 0.00 0.00 0.00 -0.00 -0.00 -0.00 -0.00 -0.00 0.00 0.00 0.00 -0.00 0.00 0.00 0.00 -0.00 -0.01 -0.02 -0.02 -0.06 -0.06 -0.04 -0.04 -0.03 -0.01 0.00 0.00 -0.00 0.00 0.00 0.00 -0.01 -0.01 -0.01 -0.01 -0.01 -0.02 -0.02 -0.02 -0.03 -0.04 -0.05 -0.05 -0.06 -0.12 -0.13 -0.13 -0.13 -0.10 -0.10 -0.11 -0.11 -0.08 -0.08 -0.11 -0.15 -0.25 -0.40 -0.40 -0.39 -0.61 -0.64 -0.64 -0.66 -0.58 -0.46 -0.46 -0.33 -0.34 -0.34 -0.37 -0.40 -0.44 -0.44 -0.50 -0.63
0.00 0.00 0.00 0.00 0.00 0.00 0.00 0.00 0.00 0.00 0.00 0.00 0.00 0.00 0.00 0.00 0.00 0.00 0.00 0.00 0.00 0.00 0.00 0.00 0.00 0.00 0.00 0.00 0.00 0.00 -0.00 -0.00 -0.00 -0.00 -0.01 -0.01 -0.01 -0.00 0.00 0.00 0.00 -0.00 -0.00 -0.01 -0.01 -0.01 -0.02 -0.04 -0.02 -0.02 -0.01 -0.02 -0.01 -0.01 -0.00 0.00 0.00 0.00 -0.01 -0.02 -0.02 -0.02 -0.02 -0.02 -0.02 -0.02 -0.03 -0.03 -0.04 -0.04 -0.05 -0.07 -0.12 -0.12 -0.14 -0.13 -0.13 -0.10 -0.10 -0.10 -0.10 -0.10 -0.13 -0.17 -0.25 -0.25 -0.26 -0.39 -0.57 -0.57 -0.49 -0.56 -0.55 -0.55 -0.52 -0.36 -0.36 -0.39 -0.40 -0.48 -0.48 -0.46 -0.54
0.00 0.00 0.00 0.00 0.00 0.00 0.00 0.00 0.00 0.00 0.00 0.00 0.00 0.00 0.00 0.00 0.00 0.00 0.00 0.00 0.00 0.00 0.00 0.00 0.00 0.00 0.00 0.00 0.00 0.00 -0.00 -0.00 -0.00 -0.00 -0.01 -0.01 -0.01 -0.01 -0.00 -0.00 -0.00 -0.00 -0.00 -0.01 -0.01 -0.01 -0.01 -0.02 -0.04 -0.04 -0.03 -0.03 -0.03 -0.03 -0.01 0.00 0.00 -0.00 -0.02 -0.02 -0.02 -0.02 -0.02 -0.03 -0.04 -0.04 -0.03 -0.04 -0.05 -0.05 -0.05 -0.05 -0.08 -0.08 -0.11 -0.13 -0.13 -0.13 -0.10 -0.09 -0.09 -0.10 -0.12 -0.16 -0.19 -0.19 -0.18 -0.26 -0.32 -0.32 -0.30 -0.43 -0.46 -0.46 -0.38 -0.48 -0.48 -0.48 -0.46 -0.50 -0.50 -0.53 -0.50